STARLINK-4396, 53637

Orbit data source: Space-Track

STARLINK-4396, 53637 is a payload satellite owned by SpaceX/Seattle (US) in LEO that was launched on Sun, 28 Aug 2022 UTC via an FALCON 9 launch vehicle from the Air Force Eastern Test Range (AFETR). Payload-class satellites include a variety of spacecraft equipped with specific instruments for various scientific and technological missions. These include communications satellites like Starlink; space stations such as the ISS; scientific satellites like the Hubble; Earth observation satellites from companies like Planet Labs, Umbra, and HawkEye 360; GPS; miniature CubeSats for education and research; and military/defense satellites.

Loading next visibility...
Identifier
53637, 2022-104BB
Orbit
LEO
Country
Flag of USUS
Related business
Manufacturer
SpaceX/Seattle
Mission
Operational Commercial Communications
Bus & Motor
STARLINK, Unknown motor
Mass
300 kg wet, ~290 kg dry
Launch date (UTC)
2022-08-28 (3 years ago)
Launch vehicle
FALCON 9
Launch site
Air Force Eastern Test Range (AFETR)
Object type
Payload
Rocket body
Debris
Shape & HBR
Box + 1 Pan, 10.1 m
Radar Cross Section
13.562 m², Large (>1 m²)

Expand to show TLE details & history
Last TLE update: 9 hours ago

TLE from 9 hours ago
0 STARLINK-4396
1 53637U 22104BB  26037.03405215  .00001236  00000-0  95745-4 0  9997
2 53637  53.2178   6.4101 0001409  95.4816 264.6337 15.08842441191448
Epoch: 2026-02-06T00:49Z
TLE epoch observation values (Epoch: 2026-02-06T00:49:02.105Z)
Latitude
-0.00003°
Longitude
-142.02642°
Altitude
540.725 km
Speed
7.593 km/s
True Right ascension
00h 25m 38s
True Declination
0° 00' 00"
Sunlit
Object was in daylight at epoch
Visualization orbit readout
Latitude
Unknown
Longitude
Unknown
Altitude
Unknown
Speed
Unknown
Apparent Right ascension
Unknown
Apparent Declination
Unknown
Sunlit
N/A
Visualization observer readout
Local Sidereal Time
12:06:51
Azimuth
Unknown
Elevation
Unknown
Doppler factor
Unknown
Orbital elements
Apogee altitude
540.956 km
Perigee altitude
539.006 km
Semi-major axis
6,918.118 km
Eccentricity
0.00014
Inclination
53.2178°
RAAN
6.4101°
Arg. of periapsis
95.4816°
True anomaly
264.61763°
Mean anomaly
264.6337°
Eccentric anomaly
264.62566°
Mean motion
3.77191 °/min
Orbital period
95.44 mins
BSTAR
0.000095745
Loading maneuver chart data...
Computing Atmospheric mass density...
Loading historical data...
Loading historical data...
Loading historical data...
Loading historical data...
Loading historical data...
Loading historical data...
Loading historical data...

Documentation

Showing up to 5 results
|